Weather History for CWLY - October, 2013

Change the Weather History Date:

Sunday, October 6, 2013

  Actual Average Record
Temperature  
Mean Temperature 65 °F -  
Max Temperature 75 °F 61 °F 77 °F (2014)
Min Temperature 55 °F 43 °F 35 °F (2000)
Growing Degree Days 15 (Base 50)    
Moisture  
Dew Point 45 °F    
Average Humidity 51    
Maximum Humidity 77    
Minimum Humidity 28    
Precipitation  
Precipitation 0.00 in - - ()
Sea Level Pressure  
Sea Level Pressure 29.91 in    
Wind  
Wind Speed 11 mph ()    
Max Wind Speed 28 mph    
Max Gust Speed 38 mph    
Visibility 9.0 miles    
Events      
Averages and records for this station are not official NWS values.
T = Trace of Precipitation, MM = Missing Value Source: Averaged Metar Reports

Daily Weather History Graph

Daily Weather History Graph

Search for Another Location

Airport or City:

Trip Planner

Search our weather history database for the weather conditions in past years. The results will help you decide how hot, cold, wet, or windy it might be!

Date:

Astronomy

Oct. 06, 2013 Rise Set
Actual Time 7:14 AM PDT 6:32 PM PDT
Civil Twilight 6:42 AM PDT 7:05 PM PDT
Nautical Twilight 6:04 AM PDT 7:42 PM PDT
Astronomical Twilight 5:26 AM PDT 8:20 PM PDT
Moon 9:19 AM PDT (10/6) 7:19 PM PDT (10/6)
Length of Visible Light 12h 22m
Length of Day
11h 18m
Waxing Crescent, 4% of the Moon is Illuminated
Oct 6
Waxing Crescent
Oct 11
First Quarter
Oct 18
Full
Oct 26
Last Quarter
Nov 3
New

Hourly Weather History & Observations

Time (PDT) Temp. Dew Point Humidity Pressure Visibility Wind Dir Wind Speed Gust Speed Precip Events Conditions
12:00 AM 60.8 °F 48.2 °F 63% 30.12 in 9.0 mi South 20.7 mph 29.9 mph N/A   Overcast
1:00 AM 60.8 °F 48.2 °F 63% 30.12 in 9.0 mi South 16.1 mph 29.9 mph N/A   Overcast
2:00 AM 60.8 °F 48.2 °F 63% 30.11 in 9.0 mi South 12.7 mph 27.6 mph N/A   Overcast
3:00 AM 59.0 °F 48.2 °F 67% 30.09 in 9.0 mi SSE 5.8 mph 17.3 mph N/A   Overcast
4:00 AM 59.0 °F 48.2 °F 67% 30.07 in 9.0 mi SE 5.8 mph - N/A   Mostly Cloudy
5:00 AM 57.2 °F 48.2 °F 72% 30.06 in 9.0 mi South 8.1 mph - N/A   Overcast
6:00 AM 57.2 °F 48.2 °F 72% 30.05 in 9.0 mi SSE 3.5 mph - N/A   Mostly Cloudy
7:00 AM 57.2 °F 48.2 °F 72% 30.05 in 9.0 mi SSE 6.9 mph - N/A   Overcast
8:00 AM 55.4 °F 48.2 °F 77% 30.04 in 9.0 mi SSE 10.4 mph - N/A   Overcast
9:00 AM 57.2 °F 48.2 °F 72% 30.03 in 9.0 mi South 9.2 mph - N/A   Mostly Cloudy
10:00 AM 59.0 °F 48.2 °F 67% 30.02 in 9.0 mi South 6.9 mph - N/A   Clear
11:00 AM 62.6 °F 48.2 °F 59% 29.99 in 9.0 mi Variable 3.5 mph - N/A   Clear
12:00 PM 64.4 °F 50.0 °F 59% 29.95 in 9.0 mi South 4.6 mph - N/A   Clear
1:00 PM 69.8 °F 50.0 °F 49% 29.91 in 9.0 mi Variable 4.6 mph - N/A   Clear
2:00 PM 71.6 °F 50.0 °F 46% 29.85 in 9.0 mi Variable 2.3 mph - N/A   Clear
2:58 PM 75.2 °F 46.4 °F 36% 29.80 in 9.0 mi South 13.8 mph 19.6 mph N/A   Clear
3:00 PM 75.2 °F 46.4 °F 36% 29.80 in 9.0 mi South 15.0 mph 20.7 mph N/A   Clear
4:00 PM 75.2 °F 42.8 °F 31% 29.75 in 9.0 mi South 15.0 mph 23.0 mph N/A   Clear
5:00 PM 71.6 °F 44.6 °F 38% 29.73 in 9.0 mi South 12.7 mph 18.4 mph N/A   Clear
6:00 PM 71.6 °F 37.4 °F 29% 29.71 in 9.0 mi South 11.5 mph 26.5 mph N/A   Clear
7:00 PM 68.0 °F 35.6 °F 30% 29.70 in 9.0 mi South 16.1 mph 27.6 mph N/A   Clear
8:00 PM 68.0 °F 33.8 °F 28% 29.69 in 9.0 mi South 17.3 mph 29.9 mph N/A   Clear
9:00 PM 68.0 °F 35.6 °F 30% 29.67 in 9.0 mi South 26.5 mph 38.0 mph N/A   Clear
10:00 PM 66.2 °F 33.8 °F 30% 29.67 in 9.0 mi South 27.6 mph 38.0 mph N/A   Clear
11:00 PM 66.2 °F 32.0 °F 28% 29.69 in 9.0 mi South 19.6 mph 34.5 mph N/A   Clear